1506063600.29,63191,13.81,73612.3,0.53,-1.09,-1.09,0,*47
1506063601.54,63192,13.81,73612.0,0.51,-1.13,-1.09,0,*4D
1506063602.77,63193,13.81,73608.5,0.51,-1.13,-1.21,0,*46
1506063604.0,63194,13.81,73610.5,0.53,-1.13,-1.09,0,*49
1506063605.22,63195,13.81,73612.0,0.53,-1.13,-1.09,0,*48
1506063606.44,63196,13.81,73608.3,0.53,-1.09,-1.09,0,*40
1506063607.66,63197,13.81,73612.5,0.53,-1.09,-1.13,0,*4A
1506063608.89,63198,13.81,73610.5,0.53,-1.13,-1.09,0,*45
1506063610.14,63199,13.88,73612.0,0.51,-1.09,-1.13,0,*46
1506063611.36,63200,13.81,73612.3,0.53,-1.09,-1.09,0,*4C
1506063612.61,63201,13.81,73610.5,0.51,-1.13,-1.13,0,*4F
1506063613.81,63202,13.81,73614.8,0.51,-1.21,-1.25,0,*48
1506063615.02,63203,13.81,73608.3,0.51,-1.25,-1.21,0,*49
1506063616.2,63204,13.81,73612.0,0.53,-1.21,-1.25,0,*4C
1506063617.38,63205,13.81,73610.0,0.53,-1.21,-1.21,0,*49
1506063618.62,63206,13.81,73612.8,0.51,-1.13,-1.21,0,*49
1506063619.87,63207,13.81,73610.3,0.51,-1.13,-1.13,0,*49
1506063621.09,63208,13.88,73612.0,0.53,-1.09,-1.09,0,*44
1506063622.31,63209,13.81,73612.5,0.53,-1.13,-1.09,0,*4E
1506063623.54,63210,13.81,73612.0,0.53,-1.13,-1.13,0,*4D
1506063624.75,63211,13.81,73610.0,0.53,-1.09,-1.13,0,*47
1506063625.96,63212,13.81,73608.8,0.53,-1.09,-1.21,0,*45
1506063627.16,63213,13.81,73612.0,0.53,-1.09,-1.21,0,*44
1506063628.38,63214,13.81,73610.0,0.53,-1.13,-1.13,0,*49
1506063629.6,63215,13.81,73612.3,0.53,-1.09,-1.13,0,*43
1506063630.8,63216,13.88,73614.8,0.53,-1.13,-1.21,0,*4A
1506063631.98,63217,13.81,73610.8,0.53,-1.21,-1.25,0,*4E
1506063633.16,63218,13.81,73608.8,0.53,-1.21,-1.25,0,*41
1506063634.36,63219,13.81,73612.3,0.53,-1.13,-1.25,0,*41
1506063635.58,63220,13.81,73610.3,0.55,-1.09,-1.17,0,*47
1506063636.81,63221,13.88,73614.8,0.55,-1.05,-1.17,0,*4A
1506063638.04,63222,13.81,73612.0,0.55,-1.09,-1.17,0,*45
1506063639.29,63223,13.81,73608.0,0.55,-1.09,-1.09,0,*4B
1506063640.51,63224,13.88,73614.0,0.55,-1.09,-1.17,0,*43
1506063641.75,63225,13.81,73610.5,0.55,-1.05,-1.17,0,*4E
1506063642.98,63226,13.81,73612.0,0.55,-1.17,-1.09,0,*41
1506063644.21,63227,13.81,73608.5,0.55,-1.05,-1.17,0,*4C
1506063645.44,63228,13.88,73614.0,0.57,-1.05,-1.05,0,*42
1506063646.67,63229,13.88,73614.3,0.57,-1.05,-1.05,0,*43
1506063647.93,63230,13.88,73614.0,0.55,-1.01,-1.05,0,*4D
1506063649.17,63231,13.88,73612.3,0.55,-0.93,-1.05,0,*76
1506063650.4,63232,13.88,73610.8,0.57,-1.01,-1.01,0,*49
1506063651.61,63233,13.81,73610.5,0.57,-0.93,-0.93,0,*48
1506063652.82,63234,13.81,73608.8,0.57,-0.93,-1.01,0,*75
1506063654.06,63235,13.81,73610.3,0.55,-0.89,-0.89,0,*4C
1506063655.28,63236,13.88,73614.3,0.55,-0.81,-0.89,0,*47
1506063656.5,63237,13.88,73612.8,0.55,-0.81,-0.89,0,*46
1506063657.67,63238,13.88,73612.3,0.57,-0.81,-0.81,0,*43
1506063658.84,63239,13.88,73614.5,0.57,-0.81,-0.81,0,*42
1506063660.03,63240,13.88,73614.8,0.55,-0.77,-0.81,0,*47
1506063661.23,63241,13.88,73612.3,0.55,-0.77,-0.77,0,*4F
1506063662.4,63242,13.88,73610.8,0.57,-0.77,-0.77,0,*4E
1506063663.57,63243,13.88,73614.5,0.57,-0.69,-0.77,0,*40
1506063664.77,63244,13.81,73608.5,0.55,-0.77,-0.77,0,*4A
1506063665.94,63245,13.81,73610.5,0.57,-0.69,-0.77,0,*46
1506063667.11,63246,13.88,73610.8,0.57,-0.69,-0.77,0,*45
1506063668.27,63247,13.88,73612.0,0.57,-0.69,-0.69,0,*4B
1506063669.44,63248,13.81,73612.5,0.57,-0.69,-0.69,0,*44
1506063670.61,63249,13.81,73608.8,0.57,-0.69,-0.77,0,*4A
1506063671.78,63250,13.88,73614.0,0.57,-0.77,-0.69,0,*42
1506063672.95,63251,13.88,73612.3,0.57,-0.77,-0.77,0,*4C
1506063674.13,63252,13.88,73610.0,0.59,-0.61,-0.65,0,*45
1506063675.32,63253,13.88,73614.5,0.59,-0.65,-0.65,0,*40
1506063676.51,63254,13.88,73614.5,0.59,-0.61,-0.65,0,*43
1506063677.69,63255,13.88,73612.5,0.59,-0.61,-0.61,0,*46
1506063678.88,63256,13.88,73614.3,0.59,-0.61,-0.53,0,*44
1506063680.06,63257,13.81,73610.5,0.59,-0.61,-0.61,0,*44
1506063681.25,63258,13.88,73612.0,0.59,-0.53,-0.61,0,*4A
1506063682.44,63259,13.88,73612.5,0.59,-0.61,-0.53,0,*4B
1506063683.62,63260,13.88,73612.3,0.59,-0.61,-0.61,0,*40
1506063684.8,63261,13.88,73614.0,0.59,-0.61,-0.61,0,*41
1506063685.97,63262,13.88,73612.8,0.61,-0.49,-0.49,0,*49
1506063687.14,63263,13.81,73608.8,0.61,-0.49,-0.57,0,*47
1506063688.31,63264,13.88,73614.5,0.61,-0.49,-0.53,0,*44
1506063689.48,63265,13.88,73612.0,0.61,-0.49,-0.49,0,*4E
1506063690.67,63266,13.88,73614.0,0.59,-0.53,-0.49,0,*4D
1506063691.85,63267,13.88,73614.8,0.61,-0.45,-0.49,0,*40
1506063693.02,63268,13.88,73616.8,0.61,-0.45,-0.49,0,*4F
1506063694.19,63269,13.88,73612.3,0.61,-0.45,-0.45,0,*42
1506063695.36,63270,13.88,73612.3,0.61,-0.45,-0.45,0,*4A
1506063696.53,63271,13.88,73614.0,0.61,-0.45,-0.45,0,*4B
1506063697.7,63272,13.88,73612.3,0.61,-0.45,-0.45,0,*48
1506063698.87,63273,13.88,73614.3,0.61,-0.45,-0.49,0,*45
1506063700.07,63274,13.88,73616.5,0.63,-0.45,-0.49,0,*40
1506063701.27,63275,13.88,73612.0,0.63,-0.37,-0.37,0,*4D
1506063702.46,63276,13.88,73610.5,0.63,-0.33,-0.45,0,*4F
1506063703.63,63277,13.88,73612.8,0.65,-0.45,-0.45,0,*49
1506063704.82,63278,13.88,73612.5,0.63,-0.37,-0.45,0,*45
1506063705.99,63279,13.88,73612.3,0.65,-0.37,-0.37,0,*47
1506063707.19,63280,13.88,73614.8,0.63,-0.37,-0.37,0,*47
1506063708.36,63281,13.88,73612.3,0.65,-0.37,-0.37,0,*40
1506063709.56,63282,13.88,73614.0,0.63,-0.37,-0.45,0,*40
1506063710.72,63283,13.88,73612.0,0.65,-0.33,-0.33,0,*42
1506063711.92,63284,13.88,73612.3,0.63,-0.37,-0.37,0,*43
1506063713.12,63285,13.88,73612.0,0.63,-0.37,-0.37,0,*42
1506063714.29,63286,13.88,73616.0,0.65,-0.33,-0.33,0,*47
1506063715.47,63287,13.88,73616.3,0.65,-0.33,-0.23,0,*47
1506063716.67,63288,13.88,73612.3,0.63,-0.33,-0.37,0,*4B
1506063717.83,63289,13.88,73614.0,0.65,-0.29,-0.29,0,*48
1506063719.02,63290,13.88,73616.3,0.63,-0.37,-0.33,0,*42
1506063720.19,63291,13.88,73614.8,0.65,-0.29,-0.33,0,*4A
1506063721.36,63292,13.88,73614.0,0.65,-0.33,-0.33,0,*42
1506063722.54,63293,13.88,73614.8,0.65,-0.23,-0.29,0,*49
1506063723.7,63294,13.88,73616.5,0.65,-0.29,-0.29,0,*44
1506063724.86,63295,13.88,73612.8,0.65,-0.29,-0.29,0,*45
1506063726.05,63296,13.88,73612.0,0.67,-0.29,-0.29,0,*44
1506063727.24,63297,13.88,73616.0,0.67,-0.29,-0.29,0,*45
1506063728.4,63298,13.88,73614.0,0.69,-0.29,-0.29,0,*44
1506063729.59,63299,13.88,73616.0,0.69,-0.29,-0.27,0,*4B
1506063730.77,63300,13.88,73612.5,0.69,-0.19,-0.19,0,*44
1506063731.94,63301,13.88,73614.5,0.69,-0.19,-0.19,0,*45
1506063733.14,63302,13.88,73616.0,0.69,-0.19,-0.27,0,*4B
1506063734.35,63303,13.88,73616.8,0.69,-0.27,-0.27,0,*47
1506063735.55,63304,13.88,73612.8,0.69,-0.19,-0.23,0,*49
1506063736.77,63305,13.88,73616.8,0.69,-0.27,-0.27,0,*41
1506063737.96,63306,13.88,73612.8,0.69,-0.19,-0.27,0,*4F
1506063739.18,63307,13.88,73618.0,0.69,-0.27,-0.27,0,*43
1506063740.4,63308,13.88,73614.5,0.69,-0.27,-0.27,0,*4C
1506063741.57,63309,13.88,73616.0,0.69,-0.19,-0.19,0,*4D
1506063742.75,63310,13.88,73616.5,0.69,-0.19,-0.19,0,*45
1506063743.92,63311,13.88,73616.0,0.69,-0.19,-0.19,0,*44
1506063745.13,63312,13.88,73612.3,0.73,-0.23,-0.23,0,*4C
1506063746.3,63313,13.88,73614.5,0.73,-0.15,-0.15,0,*4D
1506063747.48,63314,13.88,73612.0,0.69,-0.19,-0.19,0,*41
1506063748.67,63315,13.88,73616.5,0.69,-0.19,-0.27,0,*4D
1506063749.85,63316,13.88,73614.0,0.73,-0.11,-0.15,0,*4C
1506063751.03,63317,13.88,73616.0,0.77,-0.11,-0.19,0,*45
1506063752.23,63318,13.88,73616.8,0.73,-0.23,-0.15,0,*43
1506063753.4,63319,13.88,73614.0,0.73,-0.15,-0.15,0,*47
1506063754.57,63320,13.88,73612.8,0.73,-0.15,-0.15,0,*4D
1506063755.74,63321,13.88,73614.3,0.73,-0.15,-0.15,0,*4C
1506063756.91,63322,13.88,73614.3,0.73,-0.11,-0.11,0,*4F
1506063758.09,63323,13.88,73614.3,0.77,-0.07,-0.11,0,*7D
1506063759.27,63324,13.88,73614.3,0.73,-0.11,-0.11,0,*49
1506063760.48,63325,13.88,73614.3,0.79,-0.11,-0.11,0,*42
1506063761.69,63326,13.88,73614.3,0.79,-0.11,-0.07,0,*76
1506063762.86,63327,13.88,73616.8,0.77,-0.07,-0.07,0,*4E
1506063764.03,63328,13.88,73614.3,0.77,-0.07,-0.07,0,*41
1506063765.21,63329,13.88,73612.0,0.79,0.01,-0.07,0,*65
1506063766.42,63330,13.88,73614.5,0.79,-0.07,-0.11,0,*71
1506063767.59,63331,13.88,73616.8,0.81,0.05,-0.03,0,*6B
1506063768.79,63332,13.88,73612.3,0.79,-0.07,-0.07,0,*44
1506063769.96,63333,13.88,73612.8,0.81,-0.03,-0.03,0,*42
1506063771.13,63334,13.88,73616.3,0.81,-0.07,-0.03,0,*41
1506063772.31,63335,13.88,73614.8,0.81,-0.03,-0.03,0,*44
1506063773.49,63336,13.88,73612.0,0.81,-0.15,-0.03,0,*70
1506063774.66,63337,13.88,73614.8,0.81,-0.03,-0.07,0,*42
1506063775.83,63338,13.88,73618.0,0.81,0.05,-0.07,0,*66
1506063777.01,63339,13.88,73614.0,0.81,-0.03,-0.03,0,*48
1506063778.19,63340,13.88,73614.5,0.81,-0.15,-0.03,0,*71
1506063779.36,63341,13.88,73612.8,0.81,-0.15,-0.03,0,*70
1506063780.56,63342,13.88,73614.3,0.83,-0.07,-0.07,0,*46
1506063781.77,63343,13.88,73614.5,0.83,-0.15,-0.07,0,*74
1506063782.97,63344,13.88,73616.5,0.83,-0.15,-0.07,0,*73
1506063784.19,63345,13.88,73614.8,0.83,-0.15,-0.15,0,*41
1506063785.4,63346,13.88,73616.8,0.83,-0.15,-0.15,0,*42
1506063786.59,63347,13.88,73616.8,0.85,-0.15,-0.15,0,*45
1506063787.8,63348,13.88,73618.5,0.83,-0.15,-0.15,0,*4C
1506063788.98,63349,13.88,73614.8,0.85,-0.03,-0.11,0,*78
1506063790.17,63350,13.88,73618.0,0.85,-0.11,-0.11,0,*43
1506063791.36,63351,13.88,73614.3,0.85,-0.11,-0.11,0,*42
1506063792.55,63352,13.88,73618.5,0.85,-0.11,-0.11,0,*41
1506063793.73,63353,13.88,73612.3,0.85,-0.11,-0.03,0,*73
1506063794.91,63354,13.88,73614.0,0.85,-0.15,-0.03,0,*70
1506063796.09,63355,13.88,73612.8,0.85,-0.11,-0.03,0,*75
1506063797.27,63356,13.88,73614.5,0.85,-0.03,-0.11,0,*76
1506063798.46,63357,13.88,73614.5,0.85,-0.11,-0.15,0,*40
1506063799.65,63358,13.88,73614.0,0.85,-0.11,-0.15,0,*4F
1506063800.84,63359,13.88,73612.5,0.85,-0.11,-0.11,0,*4A
1506063802.03,63360,13.88,73614.5,0.85,-0.15,-0.11,0,*44
1506063803.2,63361,13.88,73616.3,0.89,-0.07,-0.07,0,*4D
1506063804.41,63362,13.88,73616.8,0.87,-0.15,-0.11,0,*44
1506063805.62,63363,13.88,73612.5,0.87,-0.15,-0.11,0,*45
1506063806.83,63364,13.88,73612.3,0.87,-0.15,-0.15,0,*46
1506063808.08,63365,13.88,73612.3,0.87,-0.23,-0.23,0,*47
1506063809.29,63366,13.88,73614.3,0.87,-0.15,-0.15,0,*44
1506063810.5,63367,13.88,73612.5,0.87,-0.15,-0.15,0,*45
1506063811.72,63368,13.88,73614.3,0.87,-0.11,-0.11,0,*4A
1506063812.9,63369,13.88,73612.8,0.89,-0.07,-0.11,0,*72
1506063814.13,63370,13.88,73614.3,0.87,-0.11,-0.23,0,*42
1506063815.34,63371,13.88,73612.5,0.87,-0.15,-0.15,0,*42
1506063816.52,63372,13.88,73614.5,0.89,-0.11,-0.11,0,*4F
1506063817.73,63373,13.88,73618.5,0.87,-0.15,-0.15,0,*40
1506063818.92,63374,13.88,73618.5,0.89,-0.11,-0.11,0,*49
1506063820.13,63375,13.88,73616.3,0.87,-0.15,-0.15,0,*46
1506063821.32,63376,13.88,73612.8,0.89,-0.19,-0.11,0,*43
1506063822.55,63377,13.88,73614.5,0.87,-0.23,-0.15,0,*41
1506063823.76,63378,13.88,73612.0,0.89,-0.23,-0.15,0,*40
1506063824.95,63379,13.88,73612.5,0.89,-0.19,-0.19,0,*44
1506063826.2,63380,13.88,73614.3,0.87,-0.23,-0.23,0,*4C
1506063827.45,63381,13.88,73618.8,0.87,-0.23,-0.23,0,*4D
1506063828.63,63382,13.88,73616.5,0.89,-0.19,-0.19,0,*40
1506063829.82,63383,13.88,73614.8,0.89,-0.19,-0.19,0,*41
1506063831.02,63384,13.88,73614.0,0.91,-0.07,-0.07,0,*4F
1506063832.23,63385,13.88,73612.5,0.91,-0.15,-0.15,0,*4E
1506063833.47,63386,13.88,73614.3,0.87,-0.23,-0.15,0,*4F
1506063834.65,63387,13.88,73614.3,0.89,-0.11,-0.11,0,*45
1506063835.84,63388,13.88,73612.0,0.89,-0.19,-0.19,0,*4A
1506063837.02,63389,13.88,73612.8,0.89,-0.19,-0.19,0,*4B
1506063838.23,63390,13.88,73612.5,0.91,-0.15,-0.15,0,*4A
1506063839.44,63391,13.88,73612.0,0.91,-0.15,-0.19,0,*47
1506063840.66,63392,13.88,73612.8,0.91,-0.15,-0.15,0,*48
1506063841.87,63393,13.88,73610.0,0.91,-0.15,-0.15,0,*49
1506063843.08,63394,13.88,73614.8,0.91,-0.15,-0.19,0,*42
1506063844.29,63395,13.88,73616.8,0.91,-0.07,-0.19,0,*70
1506063845.5,63396,13.88,73614.8,0.91,-0.15,-0.19,0,*40
1506063846.68,63397,13.88,73612.5,0.93,-0.15,-0.15,0,*4F
1506063847.89,63398,13.88,73608.3,0.91,-0.07,-0.19,0,*7D
1506063849.07,63399,13.88,73614.0,0.89,-0.19,-0.19,0,*4A
1506063850.29,63400,13.88,73610.5,0.91,-0.15,-0.15,0,*44
1506063851.5,63401,13.88,73612.8,0.91,-0.19,-0.15,0,*49
1506063852.71,63402,13.88,73610.5,0.91,-0.07,-0.15,0,*75
1506063853.92,63403,13.88,73612.5,0.91,-0.07,-0.15,0,*74
1506063855.12,63404,13.88,73610.5,0.91,-0.15,-0.07,0,*73
1506063856.3,63405,13.88,73608.3,0.93,-0.07,-0.15,0,*70
1506063857.51,63406,13.88,73608.3,0.91,-0.07,-0.15,0,*71
1506063858.72,63407,13.88,73612.3,0.91,-0.19,-0.19,0,*43
1506063859.91,63408,13.88,73612.0,0.93,-0.15,-0.19,0,*42
1506063861.09,63409,13.88,73612.3,0.93,-0.15,-0.15,0,*4F
1506063862.27,63410,13.94,73612.8,0.93,-0.15,-0.07,0,*74
1506063863.45,63411,13.88,73614.5,0.93,-0.15,-0.15,0,*46
1506063864.67,63412,13.94,73612.5,0.91,-0.15,-0.15,0,*47
1506063865.88,63413,13.88,73614.8,0.91,-0.19,-0.15,0,*4A
1506063867.07,63414,13.94,73614.5,0.93,-0.19,-0.15,0,*4F
1506063868.28,63415,13.88,73612.8,0.91,-0.15,-0.19,0,*4C
1506063869.47,63416,13.88,73612.8,0.93,-0.15,-0.15,0,*41
1506063870.65,63417,13.88,73612.0,0.93,-0.15,-0.07,0,*73
1506063871.83,63418,13.88,73612.3,0.93,-0.15,-0.15,0,*4F
1506063873.02,63419,13.88,73614.0,0.93,-0.15,-0.15,0,*4E
1506063874.21,63420,13.88,73614.3,0.93,-0.19,-0.15,0,*48
1506063875.39,63421,13.94,73612.3,0.93,-0.19,-0.19,0,*45
1506063876.58,63422,13.94,73614.5,0.97,-0.15,-0.15,0,*42
1506063877.77,63423,13.88,73614.0,0.93,-0.19,-0.15,0,*4B
1506063878.95,63424,13.88,73612.3,0.93,-0.19,-0.19,0,*40
1506063880.14,63425,13.88,73612.0,0.93,-0.15,-0.19,0,*4D
1506063881.32,63426,13.88,73612.0,0.93,-0.15,-0.19,0,*4E
1506063882.51,63427,13.88,73610.3,0.93,-0.19,-0.19,0,*43
1506063883.69,63428,13.88,73612.3,0.93,-0.19,-0.19,0,*4C
1506063884.9,63429,13.88,73612.3,0.93,-0.19,-0.27,0,*40
1506063886.08,63430,13.88,73612.3,0.93,-0.15,-0.19,0,*49
1506063887.27,63431,13.88,73610.8,0.93,-0.19,-0.19,0,*44
1506063888.48,63432,13.88,73612.0,0.93,-0.27,-0.19,0,*4A
1506063889.67,63433,13.88,73612.3,0.93,-0.19,-0.15,0,*4A
1506063890.86,63434,13.88,73610.3,0.97,-0.11,-0.11,0,*45
1506063892.05,63435,13.88,73610.8,0.97,-0.11,-0.11,0,*44
1506063893.23,63436,13.94,73614.3,0.97,-0.03,-0.11,0,*74
1506063894.45,63437,13.94,73612.8,0.99,-0.15,-0.15,0,*48
1506063895.63,63438,13.94,73612.8,0.97,-0.15,-0.11,0,*4D
1506063896.82,63439,13.88,73610.3,0.97,-0.15,-0.15,0,*48
1506063898.01,63440,13.88,73610.8,0.97,-0.15,-0.11,0,*42
1506063899.2,63441,13.88,73608.3,0.97,-0.11,-0.11,0,*47
1506063900.39,63442,13.94,73610.5,0.97,-0.11,-0.15,0,*40
1506063901.58,63443,13.94,73612.0,0.97,-0.11,-0.15,0,*41
1506063902.82,63444,13.88,73608.3,0.99,-0.23,-0.15,0,*49
1506063904.07,63445,13.94,73612.0,0.99,-0.23,-0.23,0,*4D
1506063905.26,63446,13.94,73610.3,0.97,-0.11,-0.15,0,*44
1506063906.46,63447,13.88,73608.5,0.97,-0.15,-0.23,0,*44
1506063907.65,63448,13.88,73606.5,0.97,-0.15,-0.15,0,*4E
1506063908.86,63449,13.88,73608.0,0.99,-0.15,-0.15,0,*41
1506063910.05,63450,13.88,73608.3,0.97,-0.15,-0.15,0,*47
1506063911.24,63451,13.94,73612.3,0.97,-0.15,-0.15,0,*46
1506063912.45,63452,13.88,73608.8,0.99,-0.15,-0.11,0,*4F
1506063913.67,63453,13.94,73612.3,0.99,-0.11,-0.11,0,*4A
1506063914.89,63454,13.88,73608.8,0.99,-0.11,-0.11,0,*4D
1506063916.1,63455,13.88,73608.8,0.99,-0.15,-0.15,0,*4C
1506063917.31,63456,13.88,73608.0,0.97,-0.23,-0.15,0,*44
1506063918.51,63457,13.94,73612.3,0.97,-0.15,-0.23,0,*45
1506063919.72,63458,13.88,73610.5,0.97,-0.23,-0.15,0,*4A
1506063920.96,63459,13.88,73608.3,0.99,-0.23,-0.15,0,*45
1506063922.19,63460,13.94,73614.8,0.99,-0.15,-0.23,0,*4F
1506063923.38,63461,13.88,73608.8,0.97,-0.15,-0.15,0,*45
1506063924.61,63462,13.94,73612.0,0.99,-0.15,-0.23,0,*4D
1506063925.87,63463,13.88,73610.8,0.99,-0.23,-0.23,0,*49
1506063927.08,63464,13.94,73614.0,0.99,-0.15,-0.15,0,*4E
1506063928.28,63465,13.88,73608.0,0.97,-0.15,-0.23,0,*44
1506063929.5,63466,13.88,73608.0,0.99,-0.15,-0.15,0,*4C
1506063930.73,63467,13.94,73610.3,0.97,-0.23,-0.23,0,*43
1506063931.94,63468,13.94,73608.8,0.99,-0.15,-0.15,0,*42
1506063933.17,63469,13.94,73610.0,0.99,-0.15,-0.23,0,*46
1506063934.4,63470,13.88,73606.3,0.99,-0.15,-0.23,0,*4E
1506063935.59,63471,13.94,73608.8,0.97,-0.15,-0.15,0,*44
1506063936.8,63472,13.88,73606.5,0.99,-0.15,-0.15,0,*49
1506063938.0,63473,13.94,73610.8,0.99,-0.15,-0.03,0,*7F
1506063939.19,63474,13.94,73612.0,0.97,-0.15,-0.15,0,*41
1506063940.4,63475,13.94,73614.8,0.99,-0.15,-0.15,0,*4E
1506063941.62,63476,13.88,73610.0,0.99,-0.15,-0.11,0,*49
1506063942.8,63477,13.94,73612.3,0.97,-0.15,-0.11,0,*46
1506063944.0,63478,13.94,73610.8,0.97,-0.11,-0.11,0,*4D
1506063945.18,63479,13.94,73610.0,0.97,-0.15,-0.11,0,*48
1506063946.4,63480,13.94,73608.3,0.99,-0.15,-0.15,0,*44
1506063947.63,63481,13.94,73610.5,0.99,-0.23,-0.15,0,*40
1506063948.85,63482,13.94,73610.3,0.99,-0.15,-0.15,0,*46
1506063950.06,63483,13.94,73610.5,0.99,-0.15,-0.15,0,*47
1506063951.31,63484,13.94,73608.8,0.99,-0.23,-0.23,0,*40
1506063952.54,63485,13.94,73608.3,0.97,-0.23,-0.23,0,*4F
1506063953.76,63486,13.94,73610.8,0.99,-0.15,-0.11,0,*46
1506063954.94,63487,13.88,73604.3,0.97,-0.15,-0.15,0,*4D
1506063956.16,63488,13.94,73608.8,0.99,-0.15,-0.15,0,*4C
1506063957.37,63489,13.94,73610.3,0.99,-0.15,-0.15,0,*4D
1506063958.6,63490,13.94,73610.5,0.99,-0.15,-0.23,0,*40
1506063959.81,63491,13.94,73608.3,0.99,-0.15,-0.15,0,*44
1506063961.05,63492,13.94,73610.0,0.99,-0.15,-0.23,0,*42
1506063962.26,63493,13.94,73610.3,0.99,-0.15,-0.15,0,*46
1506063963.5,63494,13.94,73604.5,0.99,-0.23,-0.15,0,*44
1506063964.71,63495,13.88,73606.8,0.99,-0.15,-0.15,0,*40
1506063965.92,63496,13.94,73610.5,0.99,-0.15,-0.15,0,*43
1506063967.13,63497,13.94,73612.8,0.99,-0.15,-0.15,0,*42
1506063968.35,63498,13.94,73612.0,0.99,-0.15,-0.15,0,*4D
1506063969.56,63499,13.94,73606.5,0.99,-0.15,-0.15,0,*4C
1506063970.77,63500,13.94,73610.3,0.99,-0.15,-0.15,0,*4D
1506063971.96,63501,13.94,73606.8,1.01,-0.11,-0.19,0,*74
1506063973.18,63502,13.94,73608.5,0.99,-0.15,-0.15,0,*4F
1506063974.41,63503,13.94,73608.3,0.99,-0.15,-0.23,0,*4B
1506063975.64,63504,13.94,73606.0,0.99,-0.23,-0.15,0,*4C
1506063976.9,63505,13.94,73610.0,0.99,-0.23,-0.27,0,*4C
1506063978.11,63506,13.94,73608.3,0.99,-0.15,-0.15,0,*4B
1506063979.35,63507,13.94,73606.8,0.99,-0.23,-0.15,0,*4F
1506063980.61,63508,13.94,73610.8,0.99,-0.23,-0.23,0,*45
1506063981.86,63509,13.94,73606.8,0.99,-0.23,-0.23,0,*44
1506063983.09,63510,13.94,73608.5,0.99,-0.15,-0.23,0,*49
1506063984.33,63511,13.94,73612.3,0.99,-0.23,-0.15,0,*48
1506063985.52,63512,13.94,73608.8,1.01,-0.11,-0.19,0,*76
1506063986.75,63513,13.94,73610.5,0.97,-0.23,-0.23,0,*41
1506063987.96,63514,13.94,73610.3,0.99,-0.15,-0.15,0,*48
1506063989.17,63515,13.94,73610.3,0.99,-0.15,-0.15,0,*49
1506063990.39,63516,13.94,73610.5,0.99,-0.15,-0.15,0,*4A
1506063991.62,63517,13.94,73610.8,0.99,-0.23,-0.15,0,*4E
1506063992.86,63518,13.94,73608.5,0.99,-0.15,-0.23,0,*41
1506063994.09,63519,13.94,73610.0,0.99,-0.15,-0.23,0,*40
1506063995.34,63520,13.94,73608.0,0.99,-0.23,-0.23,0,*4F
1506063996.56,63521,13.94,73606.8,0.99,-0.15,-0.15,0,*4E
1506063997.79,63522,13.94,73608.5,0.99,-0.23,-0.15,0,*48
1506063999.05,63523,13.94,73610.0,0.99,-0.23,-0.23,0,*4C
1506064000.3,63524,13.94,73610.0,0.99,-0.23,-0.23,0,*4B
1506064001.51,63525,13.94,73608.5,0.97,-0.15,-0.23,0,*41
1506064002.76,63526,13.94,73608.8,0.99,-0.23,-0.23,0,*49
1506064003.95,63527,13.94,73610.8,0.97,-0.15,-0.15,0,*46
1506064005.21,63528,13.94,73610.5,0.99,-0.27,-0.23,0,*43
1506064006.44,63529,13.94,73608.8,0.99,-0.15,-0.23,0,*43
1506064007.67,63530,13.94,73608.3,0.99,-0.15,-0.23,0,*4B
1506064008.91,63531,13.94,73608.5,0.99,-0.23,-0.15,0,*4A
1506064010.14,63532,13.94,73608.3,0.99,-0.15,-0.23,0,*49
1506064011.39,63533,13.94,73606.8,0.99,-0.23,-0.23,0,*4D
1506064012.62,63534,13.94,73608.0,0.99,-0.15,-0.23,0,*4F
1506064013.88,63535,13.94,73608.5,0.99,-0.23,-0.23,0,*4B
1506064015.09,63536,13.94,73610.0,0.97,-0.15,-0.23,0,*43
1506064016.29,63537,13.94,73606.5,0.97,-0.15,-0.23,0,*42
1506064017.52,63538,13.94,73608.0,0.99,-0.15,-0.23,0,*43
1506064018.75,63539,13.94,73608.0,0.97,-0.23,-0.23,0,*49
1506064020.01,63540,13.94,73608.0,0.99,-0.23,-0.23,0,*49
1506064021.26,63541,13.94,73608.0,0.99,-0.23,-0.27,0,*4C
1506064022.5,63542,13.94,73608.5,0.99,-0.27,-0.15,0,*4A
1506064023.74,63543,13.94,73606.0,0.99,-0.23,-0.15,0,*4F
1506064024.95,63544,13.94,73612.3,0.97,-0.23,-0.15,0,*46
1506064026.19,63545,13.94,73612.5,0.99,-0.23,-0.15,0,*49
1506064027.42,63546,13.94,73608.5,0.97,-0.23,-0.23,0,*41
1506064028.63,63547,13.94,73608.5,0.97,-0.27,-0.15,0,*41
1506064029.88,63548,13.94,73608.3,0.99,-0.27,-0.23,0,*45
1506064031.09,63549,13.94,73610.8,0.97,-0.23,-0.15,0,*4B
1506064032.32,63550,13.94,73608.3,0.97,-0.23,-0.23,0,*46
1506064033.55,63551,13.94,73610.8,0.97,-0.27,-0.23,0,*43
1506064034.81,63552,13.94,73608.5,0.99,-0.27,-0.23,0,*4E
1506064036.06,63553,13.94,73610.3,0.99,-0.27,-0.27,0,*4B
1506064037.29,63554,13.94,73608.5,0.97,-0.27,-0.23,0,*46
1506064038.5,63555,13.94,73610.5,0.97,-0.27,-0.33,0,*46
1506064039.7,63556,13.94,73606.5,0.97,-0.33,-0.27,0,*45
1506064040.93,63557,13.94,73606.3,0.99,-0.33,-0.27,0,*4A
1506064042.12,63558,13.94,73610.0,0.97,-0.33,-0.33,0,*4E
1506064043.34,63559,13.94,73608.3,0.97,-0.27,-0.23,0,*4B
1506064044.55,63560,13.94,73610.8,0.97,-0.27,-0.33,0,*40
1506064045.78,63561,13.94,73610.5,0.99,-0.33,-0.27,0,*4F
1506064047.01,63562,13.94,73610.5,0.99,-0.33,-0.27,0,*4C
1506064048.24,63563,13.94,73606.0,0.99,-0.33,-0.27,0,*4D
1506064049.45,63564,13.94,73606.8,0.99,-0.33,-0.33,0,*4F
1506064050.66,63565,13.94,73610.5,0.99,-0.33,-0.37,0,*4A
1506064051.84,63566,13.94,73614.0,0.97,-0.33,-0.37,0,*47
1506064053.03,63567,13.94,73610.3,0.97,-0.37,-0.37,0,*42
1506064054.22,63568,13.94,73612.8,0.97,-0.37,-0.37,0,*4D
1506064055.42,63569,13.94,73610.5,0.99,-0.45,-0.45,0,*42
1506064056.61,63570,13.94,73608.8,0.97,-0.45,-0.37,0,*41
1506064057.79,63571,13.94,73608.5,0.97,-0.45,-0.37,0,*40
1506064059.01,63572,13.94,73610.8,0.97,-0.27,-0.37,0,*47
1506064060.2,63573,13.94,73606.8,0.93,-0.41,-0.41,0,*43
1506064061.38,63574,13.94,73608.3,0.97,-0.45,-0.37,0,*45
1506064062.56,63575,13.94,73610.0,0.97,-0.45,-0.45,0,*41
1506064063.75,63576,13.94,73608.3,0.97,-0.37,-0.45,0,*47
1506064064.93,63577,13.94,73610.5,0.97,-0.37,-0.37,0,*43
1506064066.12,63578,13.94,73608.8,0.97,-0.37,-0.37,0,*4C
1506064067.3,63579,13.94,73610.5,0.97,-0.45,-0.45,0,*4D
1506064068.49,63580,13.94,73608.8,0.97,-0.37,-0.45,0,*4E
1506064069.67,63581,13.94,73608.8,0.97,-0.45,-0.45,0,*4A
1506064070.88,63582,13.94,73604.8,0.91,-0.41,-0.49,0,*47
1506064072.07,63583,13.94,73608.5,0.93,-0.49,-0.49,0,*4C
1506064073.26,63584,13.94,73614.5,0.93,-0.41,-0.41,0,*4B
1506064074.45,63585,13.94,73608.0,0.93,-0.49,-0.41,0,*42
1506064075.63,63586,13.94,73608.5,0.93,-0.49,-0.49,0,*49
1506064076.81,63587,13.94,73610.0,0.93,-0.49,-0.41,0,*40
1506064078.0,63588,13.94,73608.8,0.93,-0.49,-0.49,0,*47
1506064079.18,63589,13.94,73606.5,0.93,-0.49,-0.49,0,*46
1506064080.37,63590,13.94,73606.0,0.93,-0.41,-0.49,0,*46
1506064081.55,63591,13.94,73610.5,0.93,-0.49,-0.49,0,*4F
1506064082.73,63592,13.94,73608.8,0.93,-0.49,-0.49,0,*4C
1506064083.94,63593,13.94,73610.0,0.91,-0.49,-0.49,0,*4F
1506064085.15,63594,13.94,73610.8,0.91,-0.49,-0.49,0,*48
1506064086.34,63595,13.94,73606.8,0.93,-0.41,-0.49,0,*43
1506064087.55,63596,13.94,73610.5,0.91,-0.49,-0.49,0,*4A
1506064088.76,63597,13.94,73608.8,0.91,-0.49,-0.49,0,*4B
1506064089.97,63598,13.94,73610.3,0.91,-0.41,-0.49,0,*4C
1506064091.19,63599,13.94,73610.0,0.91,-0.49,-0.49,0,*45
1506064092.37,63600,13.94,73610.0,0.93,-0.49,-0.49,0,*44
1506064093.55,63601,13.94,73608.5,0.93,-0.45,-0.37,0,*40
1506064094.76,63602,13.94,73608.0,0.91,-0.49,-0.53,0,*4F
1506064095.96,63603,13.94,73606.5,0.91,-0.49,-0.53,0,*4E
1506064097.17,63604,13.94,73608.0,0.91,-0.49,-0.53,0,*49
1506064098.37,63605,13.94,73610.0,0.91,-0.49,-0.53,0,*48
1506064099.55,63606,13.94,73610.0,0.89,-0.57,-0.57,0,*49
1506064100.73,63607,14.0,73612.3,0.89,-0.57,-0.57,0,*48
1506064101.94,63608,13.94,73610.8,0.91,-0.53,-0.53,0,*4E
1506064103.12,63609,13.94,73610.5,0.93,-0.53,-0.61,0,*4C
1506064104.33,63610,13.94,73610.5,0.91,-0.53,-0.53,0,*47
1506064105.51,63611,13.94,73610.5,0.89,-0.57,-0.57,0,*4F